Starlink 36899

operational
NORAD ID: 68058 Int'l Des: 2026-041 Owner: SPXS Country: US Constellation: starlink
NOTLE

Über Starlink 36899

Beschreibung wird geladen...

Live-Position

3D-Globus wird geladen...

Nächste Überflüge

Höhenverlauf

Altitude vs Time

uPlot chart will show altitude changes over time

Zweizeiliger Elementsatz

1 68058C 26041U 26061.44215278 .00470680 00000+0 62857-3 0 613
2 68058 53.1640 99.6782 0007926 277.5635 147.7253 16.05340971 14
Epoch: 2. März 2026 • Age: 26 hours

Aktueller Status

Höhe 266.4 km
Geschwindigkeit 7.75 km/s
Subsatellitenpunkt 43.85°N, 41.62°W
Startdatum 2. März 2026
Alter N/A
Typ internet

Technische Details

Klassifizierung Payload
Masse 575.00 kg
Trockenmasse 530.00 kg
Gesamtmasse 575.00 kg
Länge 0.30 m
Durchmesser 4.10 m
Spannweite 29.00 m
Form Box + pan
Hersteller SPXS
Bus-Typ Starlink V2MO
Phasenstatus In Orbit
Besitzer/Staat SPXS/US

Große Konstellationen

Loading constellations...